Weather History for PATG - October, 2012

Change the Weather History Date:

Thursday, October 25, 2012

  Actual Average Record
Temperature  
Mean Temperature 26 °F -  
Max Temperature 39 °F 33 °F 46 °F (2013)
Min Temperature 12 °F 21 °F 8 °F (1999)
Degree Days  
Heating Degree Days 40    
Moisture  
Dew Point 15 °F    
Average Humidity 71    
Maximum Humidity 93    
Minimum Humidity 45    
Precipitation  
Precipitation 0.00 in - - ()
Sea Level Pressure  
Sea Level Pressure 30.46 in    
Wind  
Wind Speed 9 mph (NNE)    
Max Wind Speed 16 mph    
Max Gust Speed -    
Visibility 10 miles    
Events      
Averages and records for this station are not official NWS values.
T = Trace of Precipitation, MM = Missing Value Source: NWS Daily Summary

Daily Weather History Graph

Daily Weather History Graph

Search for Another Location

Airport or City:

Trip Planner

Search our weather history database for the weather conditions in past years. The results will help you decide how hot, cold, wet, or windy it might be!

Date:

Astronomy

Oct. 25, 2012 Rise Set
Actual Time 9:44 AM AKDT 7:05 PM AKDT
Civil Twilight 9:02 AM AKDT 7:47 PM AKDT
Nautical Twilight 8:14 AM AKDT 8:35 PM AKDT
Astronomical Twilight 7:27 AM AKDT 9:21 PM AKDT
Moon 5:37 PM AKDT (10/25) 5:05 AM AKDT (10/25)
Length of Visible Light 10h 45m
Length of Day
9h 20m
Waxing Gibbous, 85% of the Moon is Illuminated
Oct 25
Waxing Gibbous
Oct 29
Full
Nov 6
Last Quarter
Nov 13
New
Nov 20
First Quarter

Hourly Weather History & Observations

Time (AKDT) Temp. Windchill Dew Point Humidity Pressure Visibility Wind Dir Wind Speed Gust Speed Precip Events Conditions
12:16 AM 17.6 °F 9.3 °F 15.8 °F 93% 30.42 in 10.0 mi NNE 5.8 mph - N/A   Clear
12:36 AM 19.4 °F 14.3 °F 17.6 °F 93% 30.42 in 10.0 mi NNE 3.5 mph - N/A   Clear
12:56 AM 17.6 °F 10.7 °F 15.8 °F 93% 30.42 in 10.0 mi NNE 4.6 mph - N/A   Clear
1:16 AM 17.6 °F 12.3 °F 14.0 °F 86% 30.43 in 10.0 mi NNE 3.5 mph - N/A   Clear
1:36 AM 15.8 °F 6.1 °F 12.2 °F 86% 30.43 in 10.0 mi NNE 6.9 mph - N/A   Clear
1:56 AM 14.0 °F 2.9 °F 12.2 °F 93% 30.43 in 10.0 mi North 8.1 mph - N/A   Clear
2:16 AM 14.0 °F 1.2 °F 10.4 °F 86% 30.43 in 10.0 mi North 10.4 mph - N/A   Clear
2:36 AM 15.8 °F 3.4 °F 10.4 °F 79% 30.43 in 10.0 mi North 10.4 mph - N/A   Clear
2:56 AM 15.8 °F 3.4 °F 12.2 °F 86% 30.43 in 10.0 mi North 10.4 mph - N/A   Clear
3:16 AM 17.6 °F 5.0 °F 14.0 °F 86% 30.44 in 10.0 mi North 11.5 mph - N/A   Clear
3:36 AM 17.6 °F 6.4 °F 12.2 °F 79% 30.44 in 10.0 mi North 9.2 mph - N/A   Clear
3:56 AM 17.6 °F 5.7 °F 14.0 °F 86% 30.43 in 10.0 mi North 10.4 mph - N/A   Clear
4:16 AM 15.8 °F 4.2 °F 12.2 °F 86% 30.43 in 10.0 mi North 9.2 mph - N/A   Clear
4:36 AM 15.8 °F 4.2 °F 12.2 °F 86% 30.42 in 10.0 mi North 9.2 mph - N/A   Clear
4:56 AM 17.6 °F 6.4 °F 12.2 °F 79% 30.43 in 10.0 mi North 9.2 mph - N/A   Clear
5:16 AM 15.8 °F 5.1 °F 10.4 °F 79% 30.43 in 10.0 mi NNE 8.1 mph - N/A   Clear
5:36 AM 14.0 °F 2.0 °F 10.4 °F 86% 30.44 in 10.0 mi North 9.2 mph - N/A   Clear
5:56 AM 14.0 °F 2.0 °F 10.4 °F 86% 30.44 in 10.0 mi North 9.2 mph - N/A   Clear
6:16 AM 12.2 °F -0.2 °F 10.4 °F 92% 30.44 in 10.0 mi North 9.2 mph - N/A   Clear
6:36 AM 14.0 °F -0.2 °F 12.2 °F 93% 30.44 in 10.0 mi North 12.7 mph - N/A   Clear
6:56 AM 17.6 °F 5.0 °F 14.0 °F 86% 30.44 in 10.0 mi North 11.5 mph - N/A   Clear
7:16 AM 17.6 °F 5.7 °F 12.2 °F 79% 30.45 in 10.0 mi North 10.4 mph - N/A   Clear
7:36 AM 17.6 °F 5.0 °F 14.0 °F 86% 30.45 in 10.0 mi North 11.5 mph - N/A   Clear
7:56 AM 17.6 °F 5.7 °F 12.2 °F 79% 30.45 in 10.0 mi North 10.4 mph - N/A   Clear
8:16 AM 17.6 °F 7.3 °F 12.2 °F 79% 30.46 in 10.0 mi North 8.1 mph - N/A   Clear
8:36 AM 17.6 °F 5.7 °F 12.2 °F 79% 30.47 in 10.0 mi North 10.4 mph - N/A   Clear
8:56 AM 15.8 °F 4.2 °F 12.2 °F 86% 30.46 in 10.0 mi North 9.2 mph - N/A   Clear
9:16 AM 15.8 °F 3.4 °F 12.2 °F 86% 30.46 in 10.0 mi North 10.4 mph - N/A   Clear
9:36 AM 17.6 °F 4.3 °F 12.2 °F 79% 30.47 in 10.0 mi North 12.7 mph - N/A   Clear
9:56 AM 17.6 °F 5.0 °F 10.4 °F 73% 30.47 in 10.0 mi North 11.5 mph - N/A   Clear
10:16 AM 17.6 °F 5.0 °F 12.2 °F 79% 30.47 in 10.0 mi North 11.5 mph - N/A   Clear
10:36 AM 17.6 °F 5.7 °F 10.4 °F 73% 30.48 in 10.0 mi North 10.4 mph - N/A   Clear
10:56 AM 19.4 °F 7.9 °F 14.0 °F 80% 30.48 in 10.0 mi North 10.4 mph - N/A   Clear
11:16 AM 19.4 °F 6.6 °F 14.0 °F 80% 30.48 in 10.0 mi North 12.7 mph - N/A   Clear
11:36 AM 21.2 °F 8.9 °F 17.6 °F 86% 30.48 in 10.0 mi North 12.7 mph - N/A   Clear
11:56 AM 23.0 °F 12.4 °F 15.8 °F 74% 30.48 in 10.0 mi North 10.4 mph - N/A   Clear
12:16 PM 24.8 °F 13.4 °F 17.6 °F 74% 30.48 in 10.0 mi North 12.7 mph - N/A   Clear
12:36 PM 26.6 °F 15.7 °F 17.6 °F 69% 30.48 in 10.0 mi North 12.7 mph - N/A   Clear
12:56 PM 28.4 °F 17.5 °F 19.4 °F 69% 30.48 in 10.0 mi North 13.8 mph - N/A   Clear
1:16 PM 30.2 °F 19.3 °F 19.4 °F 64% 30.48 in 10.0 mi North 15.0 mph - N/A   Clear
1:36 PM 30.2 °F 20.2 °F 19.4 °F 64% 30.48 in 10.0 mi North 12.7 mph - N/A   Clear
1:56 PM 33.8 °F 24.3 °F 21.2 °F 60% 30.48 in 10.0 mi North 13.8 mph - N/A   Clear
2:16 PM 35.6 °F 25.9 °F 21.2 °F 56% 30.48 in 10.0 mi NNE 16.1 mph - N/A   Clear
2:36 PM 35.6 °F 25.9 °F 21.2 °F 56% 30.47 in 10.0 mi NNE 16.1 mph - N/A   Clear
2:56 PM 37.4 °F 28.9 °F 21.2 °F 52% 30.48 in 10.0 mi NNE 13.8 mph - N/A   Clear
3:16 PM 37.4 °F 29.8 °F 21.2 °F 52% 30.47 in 10.0 mi NE 11.5 mph - N/A   Clear
3:36 PM 39.2 °F 31.6 °F 21.2 °F 49% 30.47 in 10.0 mi NE 12.7 mph - N/A   Clear
3:56 PM 39.2 °F 32.5 °F 21.2 °F 49% 30.47 in 9.0 mi NE 10.4 mph - N/A   Clear
4:16 PM 39.2 °F 32.5 °F 21.2 °F 49% 30.47 in 10.0 mi NE 10.4 mph - N/A   Clear
4:36 PM 39.2 °F 32.5 °F 19.4 °F 45% 30.46 in 10.0 mi NE 10.4 mph - N/A   Clear
4:56 PM 39.2 °F 33.6 °F 19.4 °F 45% 30.45 in 10.0 mi ENE 8.1 mph - N/A   Clear
5:16 PM 37.4 °F 29.8 °F 19.4 °F 48% 30.45 in 10.0 mi East 11.5 mph - N/A   Clear
5:36 PM 37.4 °F 30.8 °F 21.2 °F 52% 30.45 in 10.0 mi East 9.2 mph - N/A   Clear
5:56 PM 37.4 °F 30.3 °F 21.2 °F 52% 30.45 in 10.0 mi East 10.4 mph - N/A   Clear
6:16 PM 35.6 °F 29.2 °F 21.2 °F 56% 30.46 in 10.0 mi ENE 8.1 mph - N/A   Clear
6:36 PM 35.6 °F 30.7 °F 21.2 °F 56% 30.46 in 10.0 mi ENE 5.8 mph - N/A   Clear
6:56 PM 35.6 °F - 17.6 °F 48% 30.47 in 10.0 mi Calm Calm - N/A   Clear
7:16 PM 32.0 °F 25.6 °F 15.8 °F 51% 30.47 in 10.0 mi North 6.9 mph - N/A   Clear
7:56 PM 28.4 °F 21.2 °F 15.8 °F 59% 30.47 in 10.0 mi NNW 6.9 mph - N/A   Clear
8:16 PM 28.4 °F 20.4 °F 15.8 °F 59% 30.47 in 10.0 mi NNE 8.1 mph - N/A   Clear
8:36 PM 26.6 °F 17.5 °F 15.8 °F 64% 30.48 in 10.0 mi NNE 9.2 mph - N/A   Clear
8:56 PM 24.8 °F 16.1 °F 15.8 °F 69% 30.48 in 10.0 mi North 8.1 mph - N/A   Clear
9:16 PM 26.6 °F 16.8 °F 15.8 °F 64% 30.48 in 10.0 mi North 10.4 mph - N/A   Clear
9:36 PM 24.8 °F 14.6 °F 14.0 °F 64% 30.48 in 10.0 mi North 10.4 mph - N/A   Clear
9:56 PM 26.6 °F 17.5 °F 15.8 °F 64% 30.47 in 10.0 mi North 9.2 mph - N/A   Clear
10:16 PM 26.6 °F 16.8 °F 14.0 °F 59% 30.47 in 10.0 mi North 10.4 mph - N/A   Clear
10:36 PM 26.6 °F 16.8 °F 14.0 °F 59% 30.48 in 10.0 mi NNE 10.4 mph - N/A   Clear
10:56 PM 24.8 °F 15.3 °F 14.0 °F 64% 30.48 in 10.0 mi North 9.2 mph - N/A   Clear
11:16 PM 24.8 °F 14.6 °F 14.0 °F 64% 30.48 in 10.0 mi North 10.4 mph - N/A   Clear
11:36 PM 24.8 °F 14.0 °F 14.0 °F 64% 30.48 in 10.0 mi North 11.5 mph - N/A   Clear
11:56 PM 26.6 °F 17.5 °F 14.0 °F 59% 30.48 in 10.0 mi NNE 9.2 mph - N/A   Clear